Location: Castillon
(43.0896°N, 0.2156°E)
Time: 10:36:31
(UTC+00:00)

Cosmos 1544 Rocket - Pass Details

Date: 22 October 2021
Orbit: 603 x 631 km, 82.5° (Epoch: 08 December)

Event Time Altitude Azimuth Distance (km) Brightness Sun altitude
Rises 04:13:45 0° 9° (N) 2,913 7.2 -23.9°
Reaches altitude 10° 04:16:52 10° 32° (NNE) 1,995 6.6 -23.4°
Maximum altitude 04:19:29 15° 69° (ENE) 1,658 6.7 -22.9°
Drops below altitude 10° 04:22:05 10° 105° (ESE) 1,975 7.1 -22.4°
Sets 04:25:08 0° 129° (SE) 2,868 7.7 -21.9°
